Weather History for Salisbury, MD

Change the Weather History Date:

Wednesday, October 9, 2013

  Actual Average Record
Temperature  
Mean Temperature 63 °F 59 °F  
Max Temperature 66 °F 70 °F 92 °F (2007)
Min Temperature 59 °F 48 °F 24 °F (2001)
Degree Days  
Heating Degree Days 2 7  
Month to date heating degree days 5 51  
Since 1 July heating degree days 32 99  
Cooling Degree Days 0 1  
Month to date cooling degree days 65 13  
Year to date cooling degree days 1597 1138  
Growing Degree Days 12 (Base 50)    
Moisture  
Dew Point 56 °F    
Average Humidity 77    
Maximum Humidity 90    
Minimum Humidity 63    
Precipitation  
Precipitation 0.67 in 0.12 in 1.66 in (1927)
Month to date precipitation 1.25 1.05  
Year to date precipitation 41.70 36.10  
Snow  
Snow 0.00 in 0.00 in 0.00 in (2002)
Month to date snowfall 0.0 0.0  
Since 1 July snowfall 0.0 0.0  
Snow Depth 0.00 in    
Sea Level Pressure  
Sea Level Pressure 30.19 in    
Wind  
Wind Speed 14 mph (NE)    
Max Wind Speed 23 mph    
Max Gust Speed 33 mph    
Visibility 7 miles    
Events Rain    
T = Trace of Precipitation, MM = Missing Value Source: NWS Daily Summary

Daily Weather History Graph

Daily Weather History Graph

Search for Another Location

Airport:

Trip Planner

Search our weather history database for the weather conditions in past years. The results will help you decide how hot, cold, wet, or windy it might be!

Date:

Astronomy

Oct. 09, 2013 Rise Set
Actual Time 7:05 AM EDT 6:32 PM EDT
Civil Twilight 6:38 AM EDT 6:58 PM EDT
Nautical Twilight 6:08 AM EDT 7:29 PM EDT
Astronomical Twilight 5:37 AM EDT 8:00 PM EDT
Moon 11:55 AM EDT (10/9) 10:07 PM EDT (10/9)
Length of Visible Light 12h 19m
Length of Day
11h 27m
Waxing Crescent, 25% of the Moon is Illuminated
Oct 9
Waxing Crescent
Oct 11
First Quarter
Oct 18
Full
Oct 26
Last Quarter
Nov 3
New

Hourly Weather History & Observations

Time (EDT) Temp. Dew Point Humidity Pressure Visibility Wind Dir Wind Speed Gust Speed Precip Events Conditions
12:54 AM 59.0 °F 50.0 °F 72% 30.24 in 10.0 mi North 5.8 mph - N/A   Clear
1:54 AM 59.0 °F 50.0 °F 72% 30.23 in 10.0 mi North 5.8 mph - N/A   Clear
2:54 AM 60.1 °F 51.1 °F 72% 30.22 in 10.0 mi North 6.9 mph - N/A   Overcast
3:54 AM 64.0 °F 51.1 °F 63% 30.20 in 10.0 mi NE 13.8 mph - N/A   Clear
4:54 AM 64.0 °F 52.0 °F 65% 30.20 in 10.0 mi NE 11.5 mph - N/A   Clear
5:54 AM 64.0 °F 53.1 °F 67% 30.21 in 10.0 mi NE 10.4 mph - N/A   Partly Cloudy
6:54 AM 64.0 °F 53.1 °F 67% 30.21 in 10.0 mi NE 12.7 mph 20.7 mph N/A   Scattered Clouds
7:54 AM 64.0 °F 53.1 °F 67% 30.24 in 10.0 mi ENE 10.4 mph - N/A   Partly Cloudy
8:54 AM 64.9 °F 53.1 °F 65% 30.25 in 10.0 mi NE 15.0 mph - N/A   Mostly Cloudy
9:54 AM 64.9 °F 54.0 °F 68% 30.24 in 10.0 mi NE 10.4 mph 23.0 mph N/A   Mostly Cloudy
10:54 AM 64.0 °F 55.9 °F 75% 30.24 in 10.0 mi NE 16.1 mph 23.0 mph 0.00 in Rain Light Rain
11:54 AM 63.0 °F 57.9 °F 84% 30.24 in 10.0 mi NE 15.0 mph 20.7 mph 0.00 in Rain Light Rain
12:54 PM 63.0 °F 57.9 °F 84% 30.24 in 10.0 mi NE 13.8 mph 21.9 mph 0.00 in Rain Light Rain
1:54 PM 63.0 °F 57.9 °F 84% 30.22 in 7.0 mi NNE 11.5 mph - 0.01 in Rain Light Rain
2:54 PM 62.1 °F 57.9 °F 86% 30.20 in 8.0 mi NNE 16.1 mph 21.9 mph 0.01 in Rain Light Rain
3:47 PM 62.6 °F 57.2 °F 82% 30.18 in 5.0 mi NNE 16.1 mph - 0.03 in Rain Light Rain
3:54 PM 61.0 °F 57.0 °F 87% 30.19 in 3.0 mi NNE 15.0 mph 26.5 mph 0.05 in Rain Rain
4:04 PM 60.8 °F 57.2 °F 88% 30.18 in 4.0 mi NNE 15.0 mph 21.9 mph 0.01 in Rain Light Rain
4:13 PM 60.8 °F 57.2 °F 88% 30.17 in 4.0 mi NNE 17.3 mph 24.2 mph 0.03 in Rain Rain
4:54 PM 61.0 °F 57.0 °F 87% 30.18 in 7.0 mi NE 16.1 mph 28.8 mph 0.07 in Rain Light Rain
5:54 PM 61.0 °F 57.0 °F 87% 30.18 in 7.0 mi NNE 13.8 mph - 0.01 in Rain Light Rain
6:42 PM 60.8 °F 57.2 °F 88% 30.17 in 9.0 mi NE 13.8 mph 23.0 mph 0.03 in Rain Light Rain
6:54 PM 61.0 °F 57.0 °F 87% 30.17 in 7.0 mi NNE 12.7 mph 23.0 mph 0.03 in Rain Light Rain
7:06 PM 60.8 °F 57.2 °F 88% 30.16 in 4.0 mi NE 15.0 mph - 0.03 in Rain Rain
7:17 PM 60.8 °F 57.2 °F 88% 30.15 in 3.0 mi NE 20.7 mph 26.5 mph 0.06 in Rain Rain
7:19 PM 60.8 °F 57.2 °F 88% 30.15 in 2.5 mi NNE 17.3 mph 26.5 mph 0.08 in Rain Rain
7:32 PM 60.8 °F 57.2 °F 88% 30.15 in 3.0 mi NNE 17.3 mph 27.6 mph 0.13 in Rain Rain
7:42 PM 60.8 °F 57.2 °F 88% 30.15 in 5.0 mi NE 15.0 mph 25.3 mph 0.14 in Rain Light Rain
7:54 PM 61.0 °F 57.9 °F 90% 30.16 in 6.0 mi NE 17.3 mph 23.0 mph 0.15 in Rain Light Rain
8:54 PM 61.0 °F 57.9 °F 90% 30.15 in 6.0 mi NE 19.6 mph 26.5 mph 0.07 in Rain Light Rain
9:54 PM 62.1 °F 57.9 °F 86% 30.14 in 6.0 mi NE 17.3 mph 23.0 mph 0.06 in Rain Light Rain
10:54 PM 62.1 °F 57.9 °F 86% 30.12 in 6.0 mi NE 16.1 mph 29.9 mph 0.02 in Rain Light Rain
11:54 PM 63.0 °F 59.0 °F 87% 30.11 in 8.0 mi NE 19.6 mph 27.6 mph 0.06 in Rain Light Rain